Temperature
19 19 19 19 18 18 18 18 18 18 18 18 18 18 18 18 18 18 18 18 18 18 18 18 18 18 18 18 18 18 18 18 18 18 18 18 18 18 17 17 17 17 17
19 19 19 19 18 18 18 18 18 18 18 18 18 18 18 18 18 18 18 18 18 18 18 18 18 18 18 18 18 18 18 18 18 18 18 18 18 17 17 17 17 17 17
19 19 19 19 18 18 18 18 18 18 18 18 18 18 18 18 18 18 18 18 18 18 18 18 18 18 18 18 18 18 18 18 18 18 17 17 17 17 17 17 17 17 17
19 19 19 19 19 18 18 18 18 18 18 18 18 18 18 18 18 18 18 18 18 18 18 18 18 18 18 18 18 18 18 18 17 17 17 17 17 17 17 17 17 17 17
19 19 19 19 19 18 18 18 18 18 18 18 18 18 18 18 18 18 18 18 18 18 18 18 18 18 18 18 18 18 18 18 17 17 17 17 17 17 17 17 17 17 17
19 19 19 19 19 19 19 18 18 18 18 18 18 18 18 18 18 18 18 18 18 18 18 18 18 18 18 18 18 18 18 17 17 17 17 17 17 17 17 17 17 17 17
20 19 20 19 19 19 19 18 18 18 18 18 18 18 18 18 18 18 18 18 18 18 18 18 18 18 18 18 18 18 18 18 18 17 17 17 17 17 17 17 17 17 17
20 19 20 19 19 19 19 18 18 18 18 18 18 18 18 18 18 18 18 18 18 18 18 18 18 18 18 18 18 18 18 18 17 17 17 18 18 18 18 17 17 17 17
20 19 19 19 19 19 19 19 18 18 18 18 18 18 18 18 18 18 18 18 18 18 18 18 18 18 18 18 18 18 18 18 18 17 17 18 18 18 18 17 17 17 17
21 20 19 19 19 19 19 19 19 18 18 18 18 18 18 18 18 18 18 18 18 18 18 18 18 18 18 18 18 18 18 18 18 17 18 18 18 18 18 17 17 17 17
21 20 20 19 19 18 18 19 19 18 18 18 18 18 18 18 18 17 18 18 18 18 18 18 18 18 18 18 18 18 18 18 18 17 18 18 18 18 18 18 17 17 17
21 20 20 20 19 19 18 18 18 18 18 18 18 18 18 17 17 17 18 18 18 18 18 18 18 18 18 18 18 18 18 18 18 18 18 18 18 18 18 18 18 17 17
21 21 20 20 20 19 19 19 18 18 18 18 18 18 17 18 18 17 18 18 18 18 18 18 17 18 18 18 18 18 18 18 18 18 18 18 18 18 18 18 18 18 17
22 21 21 20 19 19 19 19 18 18 18 18 18 18 18 18 18 18 18 17 17 17 18 17 17 17 17 18 18 18 18 18 18 18 18 18 18 18 18 18 18 18 18
22 21 20 20 19 19 19 19 19 19 18 18 18 18 18 18 18 18 18 18 17 17 17 17 17 17 17 17 18 18 18 18 18 18 18 18 18 18 18 18 18 18 18
22 21 20 20 20 19 19 19 19 19 19 18 18 18 18 18 18 18 18 18 18 18 18 17 18 18 18 18 18 18 18 18 18 18 18 18 18 18 18 18 18 18 18
21 21 20 20 19 19 19 19 19 19 19 19 18 18 18 18 18 18 18 18 18 18 18 18 18 18 18 18 18 18 18 18 18 18 18 18 18 18 18 18 18 18 18
22 21 21 20 20 19 19 19 19 19 19 19 18 18 18 18 18 18 18 18 18 18 18 18 18 18 18 18 18 18 18 18 18 18 18 18 18 18 18 18 18 18 18
22 21 21 21 20 20 19 19 19 19 19 19 19 19 18 18 18 18 18 18 18 18 18 18 18 18 18 18 18 18 18 18 18 18 18 18 18 18 18 18 18 18 18
22 21 21 21 20 20 19 19 19 19 19 19 19 19 18 18 18 18 18 18 18 18 18 18 18 18 18 18 18 18 18 18 18 18 18 18 18 18 18 18 18 18 18
22 21 21 21 21 20 20 19 19 19 19 19 19 19 19 19 18 18 18 18 18 18 18 18 18 18 18 18 18 18 19 19 19 19 19 19 19 19 18 18 18 18 18
22 22 21 21 21 21 20 20 20 20 19 19 19 19 19 19 19 18 18 18 18 18 18 18 18 18 18 18 18 18 18 19 19 19 19 19 19 19 19 18 18 18 18
23 22 22 22 21 21 21 20 20 20 20 20 19 19 19 19 19 19 18 18 18 18 18 18 18 18 18 18 18 18 18 18 19 19 19 19 19 19 19 19 19 18 18
24 23 22 22 22 21 21 20 20 20 20 20 20 19 19 19 19 19 19 19 18 18 18 18 18 18 18 18 18 18 18 18 18 18 19 19 19 19 19 19 19 18 18
24 23 23 22 22 22 21 21 20 20 20 20 20 19 19 19 19 19 19 19 19 18 18 18 18 18 18 18 18 18 18 18 18 18 18 19 19 19 19 18 18 18 18
25 24 23 23 22 22 22 21 21 20 20 20 20 20 19 19 19 19 19 19 19 18 18 18 18 18 18 18 18 18 18 18 18 18 18 18 18 18 18 18 18 18 18
Wind_Speed
11 12 14 14 14 12 13 13 13 13 13 13 14 14 15 15 16 16 15 15 14 14 13 12 12 12 12 12 13 14 14 14 14 15 15 15 14 13 12 11 13 15 15
14 14 15 14 13 12 12 12 12 12 12 12 13 13 14 14 14 14 13 13 13 13 12 11 11 11 12 12 12 13 13 13 12 13 14 13 12 11 10 10 13 13 14
16 15 15 13 13 12 11 11 11 11 11 12 12 12 12 12 12 12 12 12 12 11 11 11 11 11 11 11 11 11 11 11 11 11 12 12 12 11 12 14 15 14 13
16 16 15 14 13 12 11 11 11 11 11 12 12 12 12 12 11 11 11 11 11 11 10 10 10 10 10 10 10 10 9 8 8 8 7 9 12 12 12 12 12 12 11
16 17 15 14 13 13 12 12 11 11 11 11 11 11 11 11 11 11 10 10 10 10 10 10 10 10 10 9 8 8 7 6 6 5 5 11 13 12 12 11 10 10 10
17 17 15 14 14 13 12 12 11 11 11 11 10 11 10 10 10 10 10 9 10 10 9 9 10 10 9 8 7 6 5 4 4 3 7 13 13 12 11 10 9 9 9
16 17 15 14 14 13 12 12 11 11 10 10 10 10 10 9 9 9 9 9 9 9 9 9 9 9 8 7 6 4 3 4 6 3 8 12 13 12 11 9 8 9 9
16 16 16 15 14 13 12 11 11 10 10 9 9 9 8 8 8 8 7 8 8 8 8 8 9 8 7 6 5 4 4 6 4 3 9 13 15 13 11 9 8 8 8
14 15 15 15 14 13 12 11 10 10 9 9 9 8 8 7 7 7 7 7 7 8 8 8 8 8 7 6 5 4 5 6 6 2 9 12 14 12 11 9 8 8 8
11 12 13 15 15 13 12 11 11 10 9 9 9 8 8 7 7 8 8 8 7 8 8 8 8 7 7 6 6 6 6 7 7 3 8 12 14 12 10 9 8 8 8
9 9 10 11 12 13 13 13 12 10 9 9 8 8 8 7 8 8 8 9 8 8 8 8 8 7 7 7 8 8 7 8 5 3 9 15 14 12 10 9 8 8 8
10 9 8 9 9 10 10 12 11 10 10 8 8 8 7 5 5 7 9 9 8 8 8 8 9 8 8 7 9 10 8 8 5 5 10 17 15 12 11 10 9 9 9
10 9 9 8 7 7 6 8 6 7 8 8 8 7 5 4 5 7 7 7 8 9 8 8 9 9 9 7 7 8 8 6 3 5 11 16 15 13 12 11 10 10 10
10 10 10 8 6 4 5 5 5 5 5 5 7 6 5 3 2 3 4 5 6 6 6 7 7 7 6 6 5 5 5 5 3 6 12 15 14 13 12 12 11 11 11
10 9 9 8 6 4 3 2 4 4 4 6 7 7 6 3 3 3 2 3 4 5 6 5 4 4 3 4 5 5 4 4 3 5 9 15 15 14 13 13 13 12 12
9 9 9 9 8 6 4 3 2 4 5 5 6 7 6 4 3 2 2 2 2 3 3 3 3 2 3 3 4 4 4 5 4 6 9 13 15 15 15 14 14 14 14
9 8 8 9 9 7 6 6 4 4 6 4 5 7 7 5 5 3 2 2 2 3 4 3 3 3 4 4 4 5 4 5 5 5 7 10 12 15 16 16 16 15 15
10 9 8 8 10 8 5 4 2 3 4 4 5 6 7 7 7 5 3 3 4 4 3 3 3 3 3 3 3 4 4 4 5 6 7 9 11 12 16 19 18 17 17
10 9 8 5 8 9 7 5 3 2 3 4 5 5 6 7 8 5 3 3 5 3 3 4 3 3 3 3 4 5 5 5 5 7 7 9 11 11 13 17 20 19 19
11 9 9 7 6 6 6 5 4 3 4 4 4 5 6 6 6 5 3 4 4 3 3 2 2 3 3 4 5 4 4 5 5 6 7 7 9 11 12 13 16 18 20
12 11 9 9 8 6 5 5 5 5 4 4 4 7 7 7 6 4 3 3 3 3 3 3 2 4 4 3 3 4 5 6 7 6 6 5 6 9 11 12 14 14 15
13 12 11 9 9 8 6 4 3 3 3 4 3 5 7 7 7 6 5 4 4 3 3 3 3 3 3 3 2 2 3 3 3 6 4 5 5 4 5 9 11 13 12
14 13 12 11 10 9 8 5 4 3 3 2 4 4 5 7 7 5 5 5 4 4 3 4 4 5 3 3 3 2 2 2 3 3 4 4 4 4 4 5 8 11 14
15 14 11 11 10 9 8 7 7 5 5 4 4 4 5 6 6 6 6 5 4 3 3 4 4 4 4 4 2 3 4 2 2 3 3 3 3 3 4 5 4 5 8
16 15 13 11 10 10 9 8 7 6 5 4 4 4 4 5 5 6 5 4 4 4 4 3 2 3 3 3 3 3 3 3 4 3 4 3 3 3 4 4 3 3 5
14 14 14 13 11 10 10 8 8 7 5 3 3 4 4 4 5 6 5 5 5 4 4 3 3 4 4 3 3 3 3 2 3 3 4 4 4 4 4 3 3 2 2
Wind_Direction
105 103 101 95 92 90 95 95 96 95 95 97 97 97 98 99 100 102 102 103 103 104 104 104 104 102 103 102 102 103 101 100 99 101 101 101 102 103 104 107 108 102 105
112 109 104 100 98 97 100 100 102 102 103 103 103 103 103 104 105 105 106 107 107 107 107 107 105 105 107 108 108 110 111 112 115 116 113 109 106 103 100 94 97 109 110
115 115 111 107 104 102 103 107 109 107 107 107 107 108 108 109 109 109 109 109 109 110 109 108 107 108 108 113 116 118 121 125 131 134 130 122 114 105 99 96 101 111 112
117 117 112 112 108 106 106 109 112 108 106 105 107 108 109 109 111 111 111 112 113 112 111 110 111 113 114 118 123 129 135 143 152 159 156 132 120 112 108 107 111 113 115
111 112 114 116 112 110 108 107 107 107 107 106 105 106 105 107 111 114 114 114 114 114 113 112 116 117 118 122 130 142 154 168 183 198 138 108 110 121 118 117 117 119 119
117 116 117 118 117 116 112 109 108 107 107 108 107 105 106 107 111 116 118 118 117 117 116 115 120 121 123 128 136 154 175 205 229 209 132 119 122 130 129 127 126 127 125
118 118 123 123 122 121 118 115 113 111 110 110 109 109 108 109 111 114 120 120 121 123 124 125 126 127 129 136 148 170 211 251 250 202 126 121 132 137 137 136 134 133 132
122 121 126 127 127 125 123 122 121 121 120 119 117 117 116 116 116 118 124 128 130 132 131 133 134 136 140 149 168 202 247 271 275 155 121 124 135 140 142 143 143 142 142
126 129 137 138 135 133 131 129 126 126 128 128 127 128 127 128 129 132 137 140 142 141 141 141 144 146 153 166 188 228 261 275 282 164 125 129 140 144 147 151 152 153 152
126 131 143 145 145 147 142 140 135 133 136 138 139 141 142 148 154 155 152 153 154 153 154 154 158 160 170 187 210 237 262 275 257 190 128 136 146 150 155 160 164 165 164
128 131 138 140 150 151 147 148 149 148 150 153 156 162 168 176 168 169 156 157 163 165 165 167 171 177 187 204 219 235 252 254 246 158 129 146 155 160 165 170 175 178 178
143 137 133 137 143 146 144 148 160 159 159 175 162 174 185 177 157 149 149 161 170 174 176 182 187 192 203 209 216 224 237 238 228 159 146 155 161 167 173 179 186 188 188
144 142 143 140 135 134 134 151 152 147 159 169 167 173 168 156 148 142 152 164 177 182 187 185 196 206 208 209 209 209 220 230 211 144 150 161 166 173 179 187 194 197 198
143 147 142 132 124 115 123 133 148 155 159 155 156 173 159 154 150 146 157 169 179 184 184 189 199 213 214 213 218 224 230 226 204 137 156 169 174 180 186 193 199 202 204
143 142 130 123 120 117 112 172 155 153 159 156 158 175 168 166 165 161 172 174 188 185 184 190 201 201 205 225 227 223 233 243 220 168 167 178 184 187 193 199 203 206 208
142 137 131 137 141 146 165 193 183 164 159 159 160 165 172 167 149 162 170 160 190 189 182 181 195 200 223 231 238 235 238 234 216 186 175 186 193 197 202 206 210 210 212
148 145 145 153 151 166 178 192 191 186 169 166 158 164 176 176 158 167 205 196 195 190 193 198 208 208 221 227 228 235 235 233 223 210 194 189 197 206 209 212 215 215 215
153 153 170 170 158 168 184 198 198 199 158 155 173 174 181 180 176 184 204 203 192 204 200 198 214 224 233 239 235 241 235 221 220 218 214 208 204 205 210 215 216 217 218
155 159 169 166 159 170 177 189 203 189 167 175 180 176 181 185 184 189 198 193 195 207 209 223 192 210 228 240 245 234 231 223 218 224 220 219 212 202 199 208 215 217 219
160 163 167 172 172 173 175 185 197 199 187 189 183 176 184 192 188 194 200 197 212 211 211 225 202 215 228 236 257 257 238 230 220 223 222 222 214 210 209 203 207 218 222
168 169 173 181 174 183 188 192 191 196 200 192 190 179 188 193 193 201 225 198 223 220 212 221 226 232 236 233 251 274 260 240 225 223 223 227 220 213 210 198 196 205 214
173 173 176 182 178 186 191 195 199 200 210 194 192 171 182 188 196 207 205 215 220 222 223 230 233 249 256 229 226 267 282 284 255 237 217 224 232 223 220 213 202 203 208
177 178 185 184 181 189 187 189 202 191 219 209 184 182 189 190 198 213 198 220 226 223 211 217 228 236 251 255 227 231 261 271 296 276 246 227 213 217 229 223 213 210 211
181 181 178 175 178 182 189 200 199 199 205 208 193 186 188 191 202 208 204 211 219 231 216 222 216 232 241 257 260 238 246 265 278 300 295 274 237 228 235 252 243 220 208
182 178 175 172 177 180 190 201 208 213 214 209 189 180 192 197 206 209 203 205 210 225 228 225 216 240 251 252 260 263 257 252 240 248 277 289 290 257 234 237 242 229 211
179 176 173 172 177 182 190 198 203 214 221 220 196 183 196 200 205 204 201 198 207 222 220 213 222 234 240 253 263 270 269 260 249 243 260 276 276 272 247 234 234 223 195
Height
1512 1513 1513 1514 1515 1516 1517 1519 1520 1521 1523 1524 1526 1527 1528 1530 1531 1533 1534 1536 1537 1539 1540 1542 1543 1544 1545 1546 1547 1548 1549 1550 1551 1552 1553 1553 1554 1555 1556 1557 1558 1558 1559
1513 1514 1515 1516 1517 1518 1519 1521 1523 1524 1525 1527 1528 1529 1531 1532 1534 1535 1537 1538 1539 1541 1542 1543 1544 1545 1546 1547 1548 1549 1550 1551 1552 1553 1554 1555 1556 1557 1557 1558 1559 1560 1561
1515 1516 1517 1518 1519 1520 1522 1523 1525 1526 1528 1529 1530 1532 1533 1534 1536 1537 1538 1540 1541 1542 1543 1545 1546 1547 1548 1549 1550 1550 1552 1553 1554 1555 1556 1557 1557 1558 1559 1560 1561 1562 1563
1517 1518 1519 1520 1521 1522 1524 1525 1527 1528 1530 1531 1532 1534 1535 1536 1538 1539 1540 1541 1543 1544 1545 1546 1547 1548 1549 1550 1551 1552 1553 1554 1555 1556 1558 1559 1559 1560 1561 1561 1562 1563 1564
1519 1520 1521 1522 1523 1525 1526 1528 1529 1530 1531 1532 1534 1535 1537 1538 1539 1540 1542 1543 1544 1545 1546 1547 1548 1549 1550 1551 1552 1553 1555 1556 1557 1558 1560 1560 1561 1561 1562 1562 1563 1564 1565
1521 1522 1523 1524 1525 1527 1528 1529 1531 1532 1533 1534 1535 1537 1538 1539 1540 1541 1543 1544 1545 1546 1547 1548 1549 1550 1551 1552 1553 1555 1556 1557 1558 1560 1561 1562 1562 1562 1563 1564 1564 1565 1566
1523 1523 1524 1526 1527 1528 1530 1531 1532 1533 1534 1536 1537 1538 1539 1540 1541 1542 1544 1545 1546 1547 1548 1549 1550 1551 1552 1553 1554 1556 1557 1558 1559 1561 1562 1562 1563 1564 1564 1565 1565 1566 1567
1524 1525 1526 1527 1529 1530 1531 1532 1533 1535 1536 1537 1538 1539 1540 1541 1542 1543 1544 1546 1547 1548 1549 1550 1551 1552 1553 1554 1555 1557 1558 1559 1560 1562 1563 1563 1564 1564 1565 1565 1566 1567 1568
1526 1526 1527 1529 1530 1531 1532 1534 1535 1536 1537 1538 1539 1540 1541 1542 1543 1544 1545 1546 1547 1548 1549 1550 1551 1552 1553 1555 1556 1557 1559 1560 1561 1562 1563 1563 1564 1565 1565 1566 1567 1568 1568
1528 1529 1529 1530 1531 1532 1533 1535 1536 1537 1538 1539 1540 1541 1542 1543 1543 1544 1545 1546 1547 1548 1550 1551 1552 1553 1554 1555 1557 1558 1559 1560 1561 1563 1563 1563 1564 1565 1565 1566 1567 1568 1569
1529 1530 1531 1532 1533 1534 1535 1536 1537 1538 1539 1540 1541 1542 1543 1543 1544 1545 1546 1547 1548 1549 1550 1551 1552 1554 1555 1556 1557 1558 1559 1560 1561 1562 1563 1563 1564 1565 1565 1566 1567 1567 1568
1529 1531 1532 1534 1535 1536 1537 1537 1538 1539 1540 1541 1542 1543 1544 1545 1546 1546 1547 1547 1548 1549 1550 1552 1553 1554 1555 1556 1557 1559 1560 1560 1561 1562 1562 1563 1564 1564 1565 1566 1566 1567 1568
1529 1531 1532 1534 1535 1537 1537 1538 1539 1540 1541 1542 1543 1544 1545 1545 1546 1547 1547 1548 1548 1549 1551 1552 1553 1554 1555 1557 1558 1559 1560 1561 1561 1562 1562 1563 1563 1564 1564 1565 1565 1566 1567
1529 1531 1532 1534 1535 1536 1538 1539 1540 1541 1542 1542 1543 1544 1545 1546 1546 1547 1547 1548 1548 1550 1551 1552 1553 1554 1556 1557 1558 1559 1560 1560 1561 1561 1561 1562 1563 1563 1563 1564 1564 1565 1566
1529 1531 1532 1533 1534 1535 1537 1539 1540 1541 1542 1543 1543 1544 1545 1546 1546 1547 1548 1548 1549 1550 1551 1552 1553 1554 1555 1556 1557 1558 1559 1560 1561 1561 1561 1561 1562 1562 1562 1562 1563 1564 1564
1528 1530 1531 1532 1533 1535 1536 1538 1539 1541 1542 1543 1544 1544 1545 1546 1546 1547 1548 1548 1549 1550 1551 1552 1553 1554 1555 1555 1556 1557 1558 1558 1559 1560 1560 1560 1560 1560 1561 1561 1562 1562 1563
1528 1529 1531 1532 1533 1534 1536 1537 1539 1541 1542 1543 1543 1544 1545 1545 1546 1547 1547 1548 1549 1550 1550 1551 1552 1553 1554 1554 1555 1556 1556 1557 1557 1558 1558 1558 1558 1559 1559 1560 1560 1561 1561
1526 1528 1530 1532 1532 1534 1536 1537 1539 1540 1542 1542 1542 1543 1544 1545 1545 1546 1547 1547 1548 1549 1550 1551 1551 1552 1553 1553 1553 1554 1555 1555 1555 1556 1556 1556 1556 1556 1557 1558 1558 1559 1559
1525 1527 1529 1531 1532 1533 1535 1536 1538 1539 1541 1541 1542 1543 1543 1544 1545 1545 1546 1547 1547 1548 1549 1550 1550 1551 1551 1552 1552 1552 1552 1553 1553 1554 1554 1554 1555 1555 1555 1555 1556 1556 1556
1524 1525 1527 1529 1531 1532 1534 1535 1537 1538 1539 1540 1541 1542 1542 1543 1544 1545 1545 1546 1547 1547 1548 1549 1549 1549 1550 1550 1551 1551 1550 1551 1551 1551 1551 1552 1552 1552 1552 1552 1553 1553 1553
1522 1524 1526 1527 1529 1531 1532 1534 1535 1536 1538 1539 1539 1540 1540 1541 1542 1543 1544 1545 1545 1546 1546 1547 1547 1548 1548 1549 1549 1549 1548 1548 1548 1548 1549 1549 1549 1550 1550 1550 1550 1550 1550
1519 1521 1523 1525 1527 1529 1531 1532 1534 1535 1536 1537 1538 1539 1539 1540 1541 1542 1542 1543 1544 1544 1545 1545 1546 1546 1547 1547 1548 1547 1546 1547 1546 1546 1546 1546 1547 1547 1547 1548 1547 1547 1547
1516 1519 1521 1523 1525 1527 1529 1531 1533 1534 1535 1536 1537 1537 1538 1539 1539 1540 1541 1542 1542 1543 1543 1543 1544 1544 1545 1545 1546 1546 1545 1544 1544 1544 1544 1544 1544 1544 1545 1545 1545 1545 1544
1513 1516 1519 1520 1523 1525 1527 1529 1531 1532 1533 1534 1535 1536 1536 1537 1538 1538 1539 1540 1541 1541 1542 1542 1542 1542 1543 1543 1544 1544 1545 1544 1544 1542 1542 1542 1542 1542 1542 1542 1542 1542 1541
1510 1513 1515 1518 1520 1522 1524 1526 1528 1530 1531 1532 1533 1534 1535 1535 1536 1536 1537 1538 1539 1539 1540 1540 1540 1541 1541 1541 1541 1542 1542 1542 1542 1542 1540 1540 1539 1539 1539 1539 1539 1538 1538
1507 1510 1512 1514 1517 1519 1521 1523 1525 1527 1529 1530 1531 1532 1532 1533 1534 1534 1535 1536 1537 1537 1538 1538 1538 1538 1538 1538 1539 1539 1540 1540 1540 1539 1538 1537 1537 1537 1536 1536 1535 1535 1534